Temp
28 27 26 25 25 24 22 21 19 16 18 17 16 15 16 15 15 15 15 15 15 14 14 13 13 13 12 13 13 10 11 11 10 10 9 9 9 9 9 10 8 9 9
28 27 26 25 24 23 22 21 19 17 16 17 15 16 16 15 15 15 15 15 15 14 13 13 13 13 15 15 13 11 9 9 9 9 9 8 9 9 9 8 8 9 8
27 26 25 23 21 20 20 20 20 18 16 15 15 14 14 15 14 15 14 14 13 13 12 14 15 14 13 13 12 11 9 9 9 8 8 10 10 10 8 8 9 9 9
24 24 24 23 21 20 19 19 19 19 17 16 14 14 14 14 14 14 14 14 13 12 14 15 14 14 13 12 10 9 9 8 8 8 8 9 8 8 8 8 7 8 9
24 24 22 21 20 20 17 17 18 18 17 16 14 15 14 14 14 15 14 13 12 12 14 14 14 13 13 12 11 10 9 8 8 7 8 8 8 7 7 7 8 7 7
24 22 21 19 19 17 17 18 15 15 16 15 14 14 15 15 14 14 13 13 12 13 14 14 13 13 12 11 10 10 10 9 9 7 8 7 7 7 7 6 6 6 6
23 22 21 20 18 16 15 15 14 13 14 14 14 14 14 14 13 13 13 13 12 12 13 13 13 12 11 11 10 10 10 9 9 8 8 7 7 7 6 6 6 6 6
22 22 21 20 18 15 17 17 14 14 14 14 14 14 14 14 13 13 13 13 12 12 11 11 12 11 11 10 10 10 9 8 7 8 8 6 6 6 6 6 6 5 5
23 22 21 19 18 16 16 17 15 14 14 14 14 14 14 13 13 13 12 12 12 11 11 11 11 11 10 10 9 9 8 7 6 7 7 7 6 6 5 6 5 5 5
23 22 21 20 18 17 16 17 14 14 14 14 14 13 13 13 13 12 12 12 11 12 12 11 11 10 9 8 7 7 7 6 6 6 6 6 6 5 4 4 4 4 4
22 21 20 19 19 18 17 16 14 14 14 14 13 13 12 12 11 12 11 11 12 11 11 11 10 9 7 6 6 6 6 6 6 5 5 5 4 4 4 4 3 3 3
22 21 21 20 18 18 17 16 15 15 15 14 13 12 12 11 12 12 12 12 11 11 10 10 9 8 7 6 6 6 6 6 5 5 4 4 4 4 4 3 3 3 3
20 20 20 20 19 18 17 16 16 14 14 13 12 11 10 11 11 11 11 11 10 10 10 9 9 8 6 6 5 5 5 5 4 4 4 4 3 4 3 3 1 2 2
21 22 20 19 18 18 17 16 15 14 13 13 11 10 10 10 10 10 10 10 10 10 9 8 8 6 5 5 5 5 3 3 4 3 3 3 3 3 3 2 2 2 1
22 21 20 19 18 18 17 16 15 14 13 12 11 10 10 9 9 10 10 10 10 9 9 8 7 5 4 4 4 3 2 3 3 3 3 3 3 2 2 2 2 1 1
22 21 21 19 18 17 17 16 15 14 12 10 10 10 8 10 10 10 9 9 9 9 8 6 4 3 3 3 3 2 2 2 2 2 3 2 2 2 2 2 1 0 -0
21 20 19 18 17 16 16 15 14 12 11 9 10 8 9 10 9 9 9 7 6 7 5 4 3 3 2 3 2 2 1 2 2 1 2 2 2 2 2 2 1 0 -1
20 20 18 17 16 15 14 13 12 10 9 9 8 7 8 8 7 6 6 5 5 4 3 4 3 2 3 2 2 2 1 2 2 2 1 2 2 2 2 1 0 -0 -1
18 17 16 15 14 13 12 11 10 9 8 9 8 8 7 7 6 5 5 4 4 5 3 1 1 2 1 1 1 1 1 1 2 2 2 2 1 1 0 1 -0 -1 -1
16 15 14 13 12 11 10 9 9 8 8 8 8 7 6 6 6 5 4 4 3 2 1 1 2 1 1 1 1 1 1 1 2 2 2 1 0 1 0 0 -0 -1 -1
14 13 12 12 10 9 9 8 8 7 8 7 7 6 5 5 4 4 3 3 2 1 1 1 1 1 1 1 1 1 1 1 0 1 1 1 1 0 0 -0 -1 -1 -1
12 12 11 10 9 8 7 7 7 7 6 5 5 4 4 4 5 4 3 2 1 1 1 0 1 0 0 0 0 1 0 -0 -0 1 1 0 1 0 -0 -1 -1 -1 -1
11 10 11 9 7 7 7 6 6 6 7 6 6 5 5 5 4 3 2 2 1 0 -0 0 -0 -0 -0 -0 -0 -0 0 -0 0 0 0 0 -0 -1 -1 -2 -2 -1 -1
10 10 9 7 7 7 6 5 5 6 5 5 4 4 4 3 3 3 2 1 0 0 0 -0 -1 -1 -1 -0 -1 -1 -0 -0 -1 -1 -0 -0 -0 -1 -2 -2 -2 -2 -2
9 9 8 7 6 5 4 3 4 4 3 2 2 1 1 1 1 1 1 0 0 -0 -0 -1 -1 -1 -1 -1 -1 -1 -1 -1 -2 -1 -1 -1 -1 -2 -2 -2 -2 -2 -2
8 7 7 6 4 3 2 2 3 3 2 1 1 0 1 1 -0 -1 0 0 0 -0 -1 -2 -2 -1 -1 -1 -1 -1 -2 -2 -2 -2 -2 -2 -2 -2 -2 -3 -3 -2 -2
Height
1465 1467 1470 1474 1478 1482 1484 1488 1490 1491 1490 1493 1496 1500 1503 1506 1509 1512 1515 1517 1519 1521 1523 1526 1528 1528 1527 1526 1525 1524 1523 1521 1519 1516 1514 1514 1513 1511 1510 1511 1510 1509 1509
1457 1462 1467 1471 1474 1477 1480 1483 1486 1489 1487 1489 1493 1495 1497 1501 1505 1507 1509 1512 1514 1517 1519 1521 1520 1519 1519 1519 1519 1519 1517 1517 1517 1514 1513 1506 1506 1504 1502 1502 1504 1505 1504
1456 1460 1465 1469 1471 1473 1476 1480 1483 1485 1482 1485 1490 1491 1493 1496 1499 1501 1504 1506 1509 1513 1514 1513 1514 1514 1513 1514 1514 1513 1513 1511 1511 1511 1509 1506 1501 1503 1500 1496 1496 1497 1499
1458 1459 1461 1464 1467 1469 1471 1473 1476 1478 1474 1479 1483 1484 1487 1489 1491 1496 1497 1499 1501 1504 1504 1506 1508 1509 1510 1510 1510 1509 1507 1507 1506 1505 1502 1501 1498 1498 1497 1495 1492 1490 1491
1455 1457 1459 1459 1461 1462 1462 1463 1467 1470 1468 1473 1476 1479 1481 1485 1489 1491 1494 1497 1499 1501 1502 1504 1504 1505 1505 1505 1504 1504 1505 1505 1501 1501 1501 1497 1495 1492 1491 1488 1490 1484 1486
1451 1453 1454 1455 1456 1456 1454 1456 1460 1462 1462 1464 1468 1472 1477 1480 1483 1486 1489 1491 1491 1493 1496 1496 1497 1498 1499 1498 1499 1498 1498 1497 1496 1493 1490 1490 1487 1484 1484 1483 1482 1480 1480
1447 1449 1450 1451 1453 1453 1451 1452 1455 1456 1458 1462 1466 1469 1472 1474 1476 1479 1481 1483 1488 1489 1490 1491 1493 1495 1496 1495 1493 1492 1489 1488 1485 1488 1486 1485 1484 1481 1479 1477 1476 1472 1473
1444 1446 1447 1448 1449 1449 1449 1449 1450 1452 1454 1455 1459 1463 1467 1469 1472 1475 1479 1481 1484 1487 1489 1489 1490 1491 1489 1488 1486 1484 1482 1481 1479 1477 1478 1477 1477 1476 1474 1471 1471 1469 1467
1441 1444 1445 1446 1447 1447 1447 1446 1447 1449 1450 1452 1457 1460 1462 1466 1470 1472 1474 1475 1478 1480 1482 1484 1485 1485 1483 1482 1480 1478 1477 1475 1473 1470 1470 1471 1471 1470 1469 1467 1466 1464 1462
1438 1440 1442 1443 1444 1445 1444 1443 1444 1447 1449 1452 1455 1458 1461 1463 1465 1468 1468 1469 1472 1474 1476 1477 1478 1478 1477 1475 1474 1473 1471 1469 1466 1462 1461 1460 1459 1460 1461 1461 1461 1459 1458
1437 1438 1439 1438 1439 1441 1442 1443 1442 1445 1446 1448 1449 1450 1452 1453 1457 1459 1463 1465 1467 1469 1470 1471 1470 1469 1469 1469 1468 1467 1465 1463 1461 1458 1454 1453 1454 1453 1453 1452 1454 1453 1453
1433 1435 1436 1437 1437 1436 1435 1436 1437 1438 1441 1443 1445 1445 1447 1448 1451 1453 1456 1458 1460 1462 1465 1464 1464 1462 1461 1461 1459 1459 1457 1455 1453 1451 1449 1446 1445 1445 1447 1446 1446 1446 1446
1430 1430 1430 1431 1431 1430 1431 1430 1431 1432 1435 1438 1440 1441 1442 1445 1446 1449 1451 1453 1455 1456 1456 1457 1456 1456 1456 1454 1452 1450 1448 1446 1442 1441 1440 1440 1441 1440 1438 1440 1436 1439 1439
1422 1421 1423 1424 1425 1425 1425 1426 1428 1428 1430 1433 1433 1435 1436 1440 1443 1445 1447 1449 1450 1451 1451 1450 1450 1449 1448 1447 1443 1440 1437 1436 1435 1433 1432 1432 1433 1434 1433 1433 1434 1433 1432
1411 1414 1416 1417 1418 1418 1418 1419 1419 1422 1423 1425 1428 1429 1429 1433 1435 1438 1440 1444 1446 1445 1444 1442 1441 1443 1439 1439 1438 1432 1430 1428 1427 1425 1425 1425 1426 1427 1427 1427 1427 1427 1425
1401 1403 1405 1407 1410 1410 1411 1412 1414 1415 1415 1416 1421 1424 1423 1424 1428 1431 1435 1438 1437 1437 1437 1437 1438 1436 1435 1433 1428 1426 1424 1420 1419 1419 1419 1420 1420 1421 1422 1422 1421 1420 1418
1393 1395 1397 1399 1401 1402 1403 1403 1406 1410 1409 1412 1417 1420 1415 1418 1422 1425 1429 1430 1431 1431 1433 1435 1432 1429 1429 1427 1426 1423 1418 1416 1413 1413 1414 1415 1414 1415 1416 1416 1415 1413 1412
1386 1389 1392 1396 1397 1397 1398 1397 1397 1400 1405 1410 1414 1416 1416 1419 1421 1424 1426 1427 1425 1425 1426 1425 1424 1423 1421 1419 1419 1421 1418 1411 1409 1407 1408 1410 1410 1410 1411 1410 1409 1408 1408
1382 1384 1386 1388 1389 1390 1391 1391 1391 1393 1399 1405 1408 1410 1411 1413 1417 1423 1424 1423 1421 1421 1419 1419 1417 1415 1416 1415 1413 1410 1412 1409 1406 1405 1403 1404 1404 1405 1406 1406 1405 1404 1405
1378 1379 1381 1382 1383 1384 1385 1386 1387 1389 1396 1402 1408 1409 1411 1411 1411 1413 1415 1412 1415 1416 1414 1413 1412 1410 1409 1409 1408 1405 1408 1405 1402 1401 1398 1400 1401 1402 1402 1402 1402 1402 1403
1374 1375 1375 1376 1376 1377 1379 1383 1385 1391 1394 1398 1402 1405 1406 1409 1409 1409 1409 1409 1409 1412 1409 1408 1407 1405 1404 1402 1401 1400 1401 1400 1398 1397 1395 1396 1397 1398 1399 1399 1399 1400 1401
1368 1371 1374 1373 1373 1374 1376 1380 1383 1386 1388 1392 1396 1399 1401 1403 1403 1405 1407 1408 1405 1404 1403 1401 1402 1400 1400 1397 1395 1395 1395 1395 1392 1391 1391 1392 1393 1393 1395 1396 1397 1398 1400
1366 1368 1371 1373 1372 1372 1376 1377 1378 1382 1385 1386 1389 1393 1394 1395 1400 1401 1401 1399 1400 1401 1396 1395 1396 1395 1394 1393 1391 1391 1390 1390 1389 1386 1386 1387 1388 1390 1392 1393 1395 1396 1399
1365 1367 1369 1369 1373 1374 1375 1376 1377 1381 1382 1385 1388 1389 1392 1393 1393 1393 1394 1395 1393 1390 1394 1391 1391 1388 1390 1388 1387 1387 1387 1386 1385 1383 1383 1383 1385 1387 1389 1391 1393 1395 1398
1361 1364 1365 1370 1372 1374 1378 1379 1376 1380 1382 1384 1387 1388 1389 1388 1387 1388 1389 1391 1391 1385 1390 1390 1388 1386 1385 1384 1383 1383 1383 1382 1381 1380 1380 1381 1382 1384 1387 1389 1391 1394 1396
1356 1359 1365 1367 1367 1367 1369 1372 1375 1378 1378 1385 1384 1384 1384 1383 1385 1384 1384 1386 1386 1382 1385 1385 1385 1385 1383 1381 1381 1380 1380 1379 1378 1378 1378 1379 1380 1382 1384 1386 1389 1393 1396
Wind_Speed
18 16 15 21 24 24 25 26 26 24 28 33 32 30 27 25 24 23 21 19 17 16 11 9 9 7 11 13 17 17 22 25 26 23 23 28 27 24 26 26 23 26 28
21 19 15 16 21 24 25 26 26 25 30 31 33 33 29 26 25 24 23 21 18 17 11 12 12 14 16 18 20 19 19 19 17 21 21 18 22 22 22 24 30 30 30
8 10 14 17 17 18 21 24 25 25 32 31 32 26 26 26 26 26 23 22 17 16 16 16 14 11 15 15 18 18 16 18 19 20 20 17 13 18 15 16 20 27 31
7 7 8 12 15 15 16 19 24 26 35 34 32 33 32 27 28 21 22 19 19 18 18 15 13 14 14 16 16 14 19 17 20 20 24 28 27 22 20 17 17 23 26
8 5 6 8 10 13 16 18 21 26 35 33 34 36 28 26 23 23 19 19 18 17 16 15 14 16 16 17 18 20 19 22 23 20 24 26 28 28 28 27 22 22 29
5 4 6 7 9 11 15 16 20 24 33 35 37 33 31 27 22 23 20 20 17 18 17 16 16 16 17 18 20 21 23 24 26 24 26 26 24 24 27 32 33 31 30
4 3 6 7 8 9 12 13 16 21 25 27 33 31 31 27 27 21 21 20 17 15 16 16 15 17 19 20 20 23 26 28 29 30 27 26 29 29 29 26 29 21 23
7 5 6 7 8 10 11 12 14 17 17 24 30 31 28 27 20 22 20 19 15 12 11 14 16 19 21 22 25 27 28 27 27 30 30 27 26 25 26 26 23 26 25
9 6 6 7 9 9 12 14 15 19 22 25 29 27 27 20 23 23 21 17 17 14 15 16 19 23 24 27 27 30 29 27 28 30 30 30 30 30 26 29 28 25 23
12 10 10 10 10 12 13 15 16 18 20 24 24 22 21 23 22 20 21 18 17 16 17 17 22 25 25 26 26 28 27 26 29 32 31 30 31 31 30 28 26 24 24
13 13 14 13 14 15 17 18 18 20 21 24 25 27 27 25 24 23 20 19 19 19 18 20 22 22 21 22 24 26 29 29 31 31 32 31 29 29 29 27 26 21 21
14 13 12 14 17 20 21 22 23 25 26 26 26 28 27 28 26 24 23 21 21 18 19 21 22 24 25 23 25 29 30 33 34 31 30 32 29 27 22 25 24 24 27
16 15 20 21 22 23 23 24 26 27 27 27 26 26 28 26 24 22 22 21 18 16 19 20 26 27 26 25 26 28 30 31 31 30 30 27 27 26 29 28 28 25 26
27 29 22 25 22 24 25 25 27 28 28 27 27 27 28 25 22 22 22 20 16 17 18 24 27 27 25 25 26 26 26 28 31 33 32 29 26 26 23 29 30 29 28
30 30 30 29 27 25 25 25 27 28 29 29 28 28 29 24 23 24 22 19 17 20 28 27 26 22 25 26 27 30 28 27 29 30 25 23 22 21 25 27 29 31 30
33 34 30 27 24 24 23 24 25 28 32 29 30 29 24 28 26 23 19 18 20 24 25 24 21 21 22 24 30 24 25 24 25 26 23 20 20 22 26 26 28 28 26
26 25 24 24 24 23 22 23 24 25 27 25 26 26 28 27 24 19 16 13 13 19 20 17 17 22 23 21 23 21 24 23 23 24 23 23 21 25 22 26 25 23 20
26 23 19 22 23 22 20 19 20 24 24 24 24 23 24 20 15 12 10 12 13 12 13 20 20 20 21 18 18 24 25 21 20 20 22 23 23 21 20 21 21 19 17
18 17 17 16 16 16 16 16 19 20 22 24 23 20 18 15 11 9 9 9 12 17 16 14 17 19 19 19 19 18 21 19 19 17 20 24 22 19 17 19 17 15 14
11 10 10 11 11 12 14 16 20 21 22 22 18 15 13 12 12 10 9 11 10 11 13 16 18 18 16 17 19 19 21 22 21 19 16 17 17 18 17 17 14 13 13
9 9 10 10 11 12 15 18 21 20 18 17 16 15 12 10 9 8 9 8 12 16 16 20 19 18 19 17 21 20 22 21 21 21 18 17 17 19 17 15 11 10 10
7 10 9 10 12 14 18 18 23 23 21 17 14 12 12 12 11 10 9 11 14 14 15 19 17 18 19 20 19 18 19 19 19 21 20 17 18 20 18 14 11 12 9
8 9 10 12 13 16 17 18 24 22 18 16 17 16 15 14 14 15 15 16 13 14 14 14 16 18 18 17 16 17 16 15 17 15 14 16 15 16 17 14 13 13 13
8 10 12 13 15 15 15 15 16 16 14 13 13 13 13 14 16 17 19 18 15 14 15 14 16 14 13 14 15 15 15 16 16 13 13 14 14 15 16 15 14 14 15
13 14 15 15 14 13 12 11 11 11 8 7 6 6 7 12 14 15 12 14 14 15 15 15 13 12 12 13 14 14 14 15 10 10 10 11 15 17 19 17 15 14 12
14 15 16 17 16 14 12 11 11 10 8 7 6 8 14 15 14 14 15 15 18 15 15 14 13 11 12 13 14 14 12 10 8 8 9 10 14 19 21 19 18 18 15
Wind_Direction
236 234 222 221 220 218 213 214 211 212 221 215 211 213 214 210 208 202 208 214 223 236 230 227 242 263 251 267 265 279 280 287 291 285 277 286 277 272 271 269 262 264 248
231 227 225 224 220 221 219 217 215 213 231 221 214 218 215 207 204 207 213 216 227 228 222 224 225 247 286 293 293 288 287 279 278 279 282 283 288 291 283 265 258 258 252
250 235 228 228 227 225 222 222 222 220 228 231 213 213 205 208 201 209 216 221 219 223 221 234 261 271 285 287 287 289 283 285 276 270 264 279 271 305 288 267 265 264 265
205 202 208 218 225 227 228 226 221 219 229 232 224 210 205 201 206 205 210 207 209 208 223 238 260 268 266 269 282 292 290 286 282 280 274 269 271 280 285 276 266 280 273
182 197 214 213 216 214 218 212 214 215 225 228 218 209 204 207 206 211 203 195 208 208 230 252 260 264 271 280 287 289 283 285 291 280 281 279 282 270 266 276 272 274 271
189 204 205 208 210 208 230 213 203 209 221 225 212 212 211 208 203 192 190 193 205 221 238 247 255 261 273 281 283 285 286 281 278 277 279 273 268 271 270 265 273 264 278
228 208 227 229 206 211 223 217 210 216 223 218 207 211 211 208 201 199 194 196 202 218 234 244 259 269 277 282 282 281 283 282 276 277 272 271 271 273 265 265 275 264 264
206 228 233 214 212 212 230 227 218 223 216 206 210 215 214 207 205 195 199 202 206 218 225 253 265 274 278 283 283 282 281 276 275 276 275 268 267 269 269 265 262 269 268
211 228 222 217 219 218 233 234 226 215 209 208 207 214 205 202 195 202 199 203 214 215 235 253 271 279 282 284 285 285 285 279 275 280 279 272 270 265 264 267 263 263 265
211 221 221 217 224 231 232 236 225 217 221 218 207 206 203 199 200 204 215 218 223 241 252 267 276 277 280 285 287 284 285 278 272 277 278 279 274 270 265 266 263 260 263
231 237 227 220 226 229 228 225 223 215 213 208 205 201 200 202 204 214 219 226 238 247 255 276 276 280 281 281 284 280 279 274 270 271 270 275 277 275 268 261 261 260 266
240 244 246 253 249 240 228 226 223 216 215 210 207 204 204 212 214 219 226 234 242 244 275 285 284 281 286 284 279 277 276 274 274 270 268 270 277 281 258 256 263 274 281
243 243 263 270 266 250 241 235 227 223 214 212 210 211 210 214 216 218 224 231 231 265 288 288 286 288 289 286 280 276 277 276 273 271 262 263 277 253 246 264 270 267 275
264 267 275 276 262 256 258 248 239 227 219 216 214 213 218 214 213 217 224 226 247 280 284 282 286 290 287 284 281 279 278 278 278 269 266 268 250 259 268 266 269 277 280
261 271 268 275 270 265 258 248 238 228 221 217 217 215 218 209 210 221 221 237 273 278 285 285 289 287 284 285 280 271 283 280 281 272 276 261 256 269 270 275 279 279 284
269 268 273 268 264 262 258 250 240 229 221 219 217 210 197 210 215 215 224 254 266 279 280 290 290 294 292 281 275 286 288 282 271 274 268 255 275 261 273 281 277 280 283
275 271 264 262 261 259 257 246 237 225 222 217 212 203 207 205 211 219 237 250 263 279 291 293 290 291 298 299 282 286 287 285 276 272 263 255 262 274 271 282 280 283 275
270 270 263 264 263 262 250 238 223 214 213 207 203 199 202 201 205 216 232 254 279 290 282 283 289 291 289 290 286 291 289 282 278 271 260 260 272 264 273 277 281 284 263
275 269 263 258 252 244 235 220 205 201 199 199 197 193 190 192 199 222 243 264 281 282 287 287 287 299 295 293 286 288 286 283 283 279 267 268 268 258 273 279 281 271 260
264 254 246 246 242 231 217 200 191 189 190 192 194 195 196 198 206 220 249 275 278 275 271 282 297 300 292 288 289 290 284 285 285 282 275 280 259 262 270 272 276 258 255
226 232 234 226 224 212 194 188 183 186 186 187 190 192 197 204 218 237 251 256 264 269 272 286 291 293 290 282 284 283 283 284 279 280 281 279 263 254 264 263 264 242 251
226 248 227 209 192 190 181 177 181 182 179 181 189 198 209 224 243 251 249 253 261 263 276 290 292 295 295 296 292 288 286 289 282 274 266 273 263 254 252 246 236 223 229
225 214 208 190 183 175 181 180 187 193 202 200 208 218 233 244 259 263 259 264 262 268 277 271 284 295 297 298 295 291 289 295 294 285 263 258 251 242 241 224 222 221 216
224 214 198 187 182 179 179 181 183 198 202 214 222 237 252 266 273 276 275 264 259 271 279 276 288 296 300 297 294 288 288 292 291 280 267 252 247 236 220 216 215 221 222
233 221 208 197 183 172 162 170 181 192 188 202 217 234 247 269 275 280 274 266 270 269 269 274 286 296 300 302 296 291 288 294 277 264 262 247 227 220 211 209 210 206 202
208 198 199 192 180 168 162 182 196 200 199 240 251 258 262 270 262 261 274 275 278 261 254 265 274 279 295 305 301 284 284 284 263 258 251 244 232 220 215 212 211 207 205